Terminal Aerodrome Forecast
Issued by NWS Bismarck, ND

Home | Current Version | Previous Version | Graphics & Text | Print | Product List | Glossary On
Versions: 1 2 3 4 5 6 7 8 9 10 11 12 13 14 15 16 17 18
466
FTUS43 KBIS 091720
TAFBIS
TAF
KBIS 091720Z 0918/1018 24008KT P6SM SCT060 BKN100
     FM092100 10004KT P6SM BKN050
     FM100200 11006KT P6SM -SN OVC025
     FM100600 13007KT 2SM -SN BR OVC015=

USA.gov is the U.S. government's official web portal to all federal, state and local government web resources and services.